METEOR 3-6

导读 | 星芒AI

METEOR 3-6 是俄罗斯于1991年发射的气象卫星,属于 METEOR 系列,主要用于气象观测和地球资源监测。该卫星搭载了多光谱扫描仪和红外辐射计等仪器,能够提供云层分布、地表温度和大气参数等数据。尽管其设计寿命较短,但 METEOR 3-6 在气象预报和环境监测方面发挥了重要作用。卫星轨道为近地椭圆轨道,倾角约98度,使其能够覆盖全球大部分地区。

基本信息
目录编号:
22969
目录名称:
METEOR 3-6
国际标识:
1994-003A
轨道中心:
EARTH
卫星名称:
METEOR 3-6
卫星全名:
--
卫星状态:
在轨 (已飞行11645 天)
发射日期:
1994-01-25 UTC
国别 :
俄罗斯(独联体) (CIS)
星等 :
--
轨道信息
数据来源 国际轨道数据 AOE轨道数据
星历时间 2025-12-13T05:31:49+0800
12小时前
查看轨道信息
2025-12-10T11:00:00+0800
3天前
查看轨道信息
半长轴 7574.118km 7574.134km
偏心率 0.0014494 0.0014868
轨道倾角 82.563° 82.562°
近地点辐角 316.880° 322.486°
升交点赤经 218.779° 220.738°
平近点角 43.118° 220.814°
近地点 1185.005km 1184.737km
远地点 1206.961km 1207.261km
周期 109.335分钟 109.335分钟
每日圈数 13.170574 13.170533
详细信息
使用方式:
暂无
2D轨道图
3D轨道图
轨道高度分析图
轨道倾角分析图
轨道综合分析图
查看轨道综合分析图